Location: La Silve
(44.2414°N, 5.8889°E)
Time: 08:07:41
(UTC+00:00)

CENTAUR R/B - Pass Details

Date: 14 April 2021
Orbit: 742 x 1446 km, 63.4° (Epoch: 18 April)

Event Time Altitude Azimuth Distance (km) Brightness Sun altitude
Rises 20:04:01 0° 319° (NW) 4,236 7.3 -17.8°
Reaches altitude 10° 20:06:51 10° 313° (NW) 3,345 6.5 -18.2°
Maximum altitude 20:14:40 46° 244° (WSW) 1,818 4.0 -19.4°
Enters shadow 20:22:24 12° 177° (S) 3,373 4.9 -20.5°
